GW2010 Weather Reports


time (UTC)temp
C
wind
direction
speed
KPH
gust
KPH
rain 1hr
cm
rain 24hr
cm
rain mn
cm
humidity
%
barometer
mb
20260506061543 17 246 6.4 19.3 0.00 0.00 0.00 76 1014.5
20260506044545 17 290 8.0 25.7 0.00 0.00 0.00 74 1015.1
20260506043042 18 263 14.5 33.8 0.00 0.00 0.00 74 1015.1
20260506041543 18 254 11.3 22.5 0.00 0.00 0.00 74 1015.1
20260506040044 18 290 9.7 29.0 0.00 0.00 0.00 73 1015.2
20260506034542 18 213 11.3 29.0 0.00 0.00 0.00 72 1015.1
20260506033039 18 339 14.5 30.6 0.00 0.00 0.00 71 1015.2
20260506031536 19 300 16.1 27.4 0.00 0.00 0.00 70 1015.2
20260506030057 19 288 11.3 30.6 0.00 0.00 0.00 68 1015.3
20260506024553 20 265 14.5 30.6 0.00 0.00 0.00 68 1015.4
20260506023039 20 266 12.9 32.2 0.00 0.00 0.00 65 1015.2
20260506021537 20 298 14.5 32.2 0.00 0.00 0.00 64 1015.3
20260506020035 21 309 14.5 27.4 0.00 0.00 0.00 63 1015.0
20260506014555 21 291 14.5 30.6 0.00 0.00 0.00 62 1014.8
20260506013043 21 307 16.1 32.2 0.00 0.00 0.00 60 1014.5
20260506011541 21 267 12.9 22.5 0.00 0.00 0.00 59 1014.3
20260506010045 22 295 6.4 16.1 0.00 0.00 0.00 61 1014.0
20260506004546 22 303 14.5 29.0 0.00 0.00 0.00 56 1013.9
20260506003043 22 314 11.3 19.3 0.00 0.00 0.00 56 1013.8
20260506001543 23 266 8.0 20.9 0.00 0.00 0.00 59 1013.6
20260506000038 23 291 9.7 22.5 0.00 0.00 0.00 52 1013.5
20260505234534 24 313 9.7 22.5 0.00 0.00 0.00 50 1013.4
20260505233043 24 291 12.9 29.0 0.00 0.00 0.00 48 1013.4
20260505231542 25 281 8.0 20.9 0.00 0.00 0.00 48 1013.2
20260505230050 25 301 14.5 22.5 0.00 0.00 0.00 50 1013.2
20260505224547 25 279 8.0 22.5 0.00 0.00 0.00 49 1013.4
20260505223044 25 294 11.3 24.1 0.00 0.00 0.00 48 1013.4
20260505221543 25 275 11.3 22.5 0.00 0.00 0.00 47 1013.6
20260505220044 25 302 16.1 27.4 0.00 0.00 0.00 45 1013.6
20260505214541 25 261 14.5 25.7 0.00 0.00 0.00 48 1013.7
20260505213047 26 282 19.3 33.8 0.00 0.00 0.00 45 1013.7
20260505211541 26 274 14.5 30.6 0.00 0.00 0.00 44 1013.6
20260505210049 25 296 12.9 27.4 0.00 0.00 0.00 44 1013.7
20260505204541 26 298 12.9 25.7 0.00 0.00 0.00 46 1013.9
20260505203044 26 296 12.9 29.0 0.00 0.00 0.00 42 1014.0
20260505201548 26 302 16.1 32.2 0.00 0.00 0.00 41 1014.0
20260505200044 26 242 11.3 27.4 0.00 0.00 0.00 42 1014.1
20260505194548 26 273 11.3 27.4 0.00 0.00 0.00 43 1014.4
20260505193101 26 219 11.3 29.0 0.00 0.00 0.00 42 1014.7
20260505191542 26 300 17.7 27.4 0.00 0.00 0.00 44 1015.0
20260505190042 26 294 12.9 25.7 0.00 0.00 0.00 42 1015.2
20260505184535 26 267 9.7 24.1 0.00 0.00 0.00 44 1015.3
20260505183040 25 238 14.5 30.6 0.00 0.00 0.00 43 1015.5
20260505181541 25 275 9.7 33.8 0.00 0.00 0.00 43 1015.7
20260505180044 25 234 17.7 29.0 0.00 0.00 0.00 45 1015.8
20260505174538 25 284 12.9 29.0 0.00 0.00 0.00 43 1015.8
20260505173041 25 337 4.8 29.0 0.00 0.00 0.00 45 1015.9
20260505171548 25 258 8.0 30.6 0.00 0.00 0.00 47 1015.9
20260505170042 25 242 16.1 27.4 0.00 0.00 0.00 48 1016.0
20260505164543 25 311 3.2 20.9 0.00 0.00 0.00 49 1016.2
20260505163045 23 235 12.9 22.5 0.00 0.00 0.00 51 1016.3
20260505161536 23 319 9.7 22.5 0.00 0.00 0.00 52 1016.3
20260505153047 22 279 9.7 17.7 0.00 0.00 0.00 57 1016.7
20260505151540 22 11 6.4 22.5 0.00 0.00 0.00 56 1016.8
20260505124540 17 327 4.8 24.1 0.00 0.00 0.00 65 1017.1
20260505123048 16 269 6.4 20.9 0.00 0.00 0.00 69 1017.0
20260505121533 16 317 8.0 16.1 0.00 0.00 0.00 70 1017.0
20260505120052 15 19 4.8 12.9 0.00 0.00 0.00 71 1016.8
20260505114543 15 297 3.2 8.0 0.00 0.00 0.00 71 1016.7
20260505113040 14 290 3.2 11.3 0.00 0.00 0.00 72 1016.6
20260505111536 15 288 3.2 9.7 0.00 0.00 0.00 74 1016.5
20260505101540 13 307 3.2 8.0 0.00 0.00 0.00 74 1015.7
20260505100038 13 302 3.2 8.0 0.00 0.00 0.00 74 1015.8
20260505094534 13 283 4.8 11.3 0.00 0.00 0.00 73 1015.5
20260505093036 13 311 4.8 11.3 0.00 0.00 0.00 73 1015.5
20260505091551 13 292 4.8 9.7 0.00 0.00 0.00 73 1015.3
20260505090041 13 275 3.2 9.7 0.00 0.00 0.00 72 1015.3
20260505084555 13 304 4.8 9.7 0.00 0.00 0.00 72 1015.2
20260505083055 14 299 4.8 11.3 0.00 0.00 0.00 71 1015.1
20260505081551 14 317 4.8 11.3 0.00 0.00 0.00 71 1015.1
20260505080055 14 0 3.2 8.0 0.00 0.00 0.00 71 1015.0
20260505074541 15 296 3.2 9.7 0.00 0.00 0.00 71 1014.9
20260505073050 15 316 3.2 11.3 0.00 0.00 0.00 70 1014.8
20260505071545 15 315 3.2 11.3 0.00 0.00 0.00 70 1014.7